Jefferson, NC

7:35 PM EDT on August 25, 2016 (GMT -0400)
Ashe County

Weather History for KGEV - April, 2014

Change the Weather History Date:

Tuesday, April 22, 2014

  Actual Average Record
Temperature  
Mean Temperature 61 °F -  
Max Temperature 65 °F 65 °F 80 °F (1987)
Min Temperature 57 °F 40 °F 27 °F (1983)
Degree Days  
Heating Degree Days 4    
Growing Degree Days 11 (Base 50)    
Moisture  
Dew Point 44 °F    
Average Humidity 56    
Maximum Humidity 76    
Minimum Humidity 40    
Precipitation  
Precipitation 0.00 in - - ()
Sea Level Pressure  
Sea Level Pressure 29.86 in    
Wind  
Wind Speed 10 mph (WNW)    
Max Wind Speed 18 mph    
Max Gust Speed 29 mph    
Visibility 10 miles    
Events Rain    
Averages and records for this station are not official NWS values.
T = Trace of Precipitation, MM = Missing Value Source: NWS Daily Summary

Daily Weather History Graph

Daily Weather History Graph

Search for Another Location

Airport or City:

Trip Planner

Search our weather history database for the weather conditions in past years. The results will help you decide how hot, cold, wet, or windy it might be!

Date:

Astronomy

Apr. 22, 2014 Rise Set
Actual Time 6:43 AM EDT 8:05 PM EDT
Civil Twilight 6:16 AM EDT 8:32 PM EDT
Nautical Twilight 5:43 AM EDT 9:05 PM EDT
Astronomical Twilight 5:09 AM EDT 9:39 PM EDT
Moon 2:18 AM EDT (4/22) 1:17 PM EDT (4/22)
Length of Visible Light 14h 16m
Length of Day
13h 22m
Last Quarter, 46% of the Moon is Illuminated
Apr 22
Last Quarter
Apr 29
New
May 6
First Quarter
May 14
Full
May 21
Last Quarter

Hourly Weather History & Observations

Time (EDT) Temp. Dew Point Humidity Pressure Visibility Wind Dir Wind Speed Gust Speed Precip Events Conditions
12:15 AM 58.5 °F 39.2 °F 49% 29.98 in 10.0 mi Calm Calm - N/A   Clear
12:35 AM 59.5 °F 38.3 °F 45% 29.98 in 10.0 mi Calm Calm - N/A   Clear
12:55 AM 58.1 °F 39.6 °F 50% 29.97 in 10.0 mi Calm Calm - N/A   Clear
1:15 AM 60.4 °F 36.9 °F 42% 29.97 in 10.0 mi WNW 4.6 mph - N/A   Clear
1:35 AM 61.0 °F 36.9 °F 41% 29.96 in 10.0 mi West 8.1 mph - N/A   Clear
1:55 AM 61.3 °F 36.7 °F 40% 29.95 in 10.0 mi West 12.7 mph 16.1 mph N/A   Clear
2:15 AM 60.8 °F 36.7 °F 41% 29.95 in 10.0 mi West 10.4 mph - N/A   Clear
2:35 AM 61.3 °F 37.0 °F 40% 29.93 in 10.0 mi West 16.1 mph 21.9 mph N/A   Clear
2:55 AM 61.2 °F 37.6 °F 42% 29.93 in 10.0 mi West 17.3 mph 23.0 mph N/A   Clear
3:15 AM 60.8 °F 38.3 °F 43% 29.93 in 10.0 mi West 16.1 mph 24.2 mph N/A   Clear
3:35 AM 60.6 °F 38.7 °F 44% 29.92 in 10.0 mi West 16.1 mph 25.3 mph N/A   Clear
3:55 AM 60.1 °F 38.7 °F 45% 29.92 in 10.0 mi West 16.1 mph 23.0 mph N/A   Clear
4:15 AM 59.9 °F 38.8 °F 46% 29.92 in 10.0 mi West 15.0 mph - N/A   Clear
4:35 AM 58.8 °F 38.8 °F 47% 29.92 in 10.0 mi West 9.2 mph - N/A   Scattered Clouds
4:55 AM 59.0 °F 38.8 °F 47% 29.92 in 10.0 mi WNW 12.7 mph - N/A   Clear
5:15 AM 59.0 °F 39.0 °F 48% 29.91 in 10.0 mi West 12.7 mph - N/A   Mostly Cloudy
5:35 AM 58.8 °F 39.4 °F 49% 29.90 in 10.0 mi West 11.5 mph - N/A   Overcast
5:55 AM 58.6 °F 39.7 °F 49% 29.90 in 10.0 mi West 10.4 mph 17.3 mph N/A   Overcast
6:15 AM 58.8 °F 40.6 °F 51% 29.90 in 10.0 mi West 11.5 mph 18.4 mph N/A   Overcast
6:35 AM 58.6 °F 40.1 °F 50% 29.90 in 10.0 mi West 10.4 mph - N/A   Overcast
6:55 AM 59.0 °F 40.1 °F 50% 29.89 in 10.0 mi WNW 12.7 mph - N/A   Mostly Cloudy
7:15 AM 58.5 °F 40.1 °F 51% 29.89 in 10.0 mi West 12.7 mph - N/A   Clear
7:35 AM 58.3 °F 40.3 °F 51% 29.89 in 10.0 mi West 12.7 mph 16.1 mph N/A   Clear
7:55 AM 58.5 °F 40.5 °F 51% 29.89 in 10.0 mi WNW 15.0 mph 23.0 mph N/A   Scattered Clouds
8:15 AM 58.6 °F 40.8 °F 52% 29.89 in 10.0 mi WNW 12.7 mph 19.6 mph N/A   Mostly Cloudy
8:35 AM 59.0 °F 41.0 °F 51% 29.89 in 10.0 mi WNW 12.7 mph - N/A   Overcast
9:00 AM 59.0 °F 41.4 °F 52% 29.88 in 10.0 mi WNW 12.7 mph 18.4 mph N/A   Mostly Cloudy
9:15 AM 59.9 °F 41.9 °F 51% 29.88 in 10.0 mi West 13.8 mph 18.4 mph N/A   Mostly Cloudy
9:35 AM 60.4 °F 42.1 °F 51% 29.88 in 10.0 mi West 11.5 mph 16.1 mph N/A   Scattered Clouds
9:55 AM 62.1 °F 42.4 °F 49% 29.87 in 10.0 mi West 12.7 mph 21.9 mph N/A   Mostly Cloudy
10:15 AM 64.0 °F 43.0 °F 46% 29.86 in 10.0 mi West 11.5 mph 17.3 mph N/A   Overcast
10:35 AM 64.4 °F 43.0 °F 46% 29.86 in 10.0 mi West 13.8 mph 23.0 mph N/A   Overcast
10:55 AM 65.3 °F 43.7 °F 46% 29.86 in 10.0 mi West 12.7 mph 21.9 mph N/A   Overcast
11:15 AM 65.1 °F 43.3 °F 45% 29.87 in 10.0 mi WNW 16.1 mph 25.3 mph N/A   Overcast
11:35 AM 64.0 °F 44.4 °F 49% 29.87 in 10.0 mi WNW 12.7 mph 21.9 mph N/A   Overcast
11:55 AM 64.4 °F 45.5 °F 50% 29.87 in 10.0 mi WNW 15.0 mph 25.3 mph N/A   Overcast
12:15 PM 63.7 °F 45.3 °F 51% 29.86 in 10.0 mi West 5.8 mph - N/A   Overcast
12:35 PM 64.6 °F 45.7 °F 50% 29.86 in 10.0 mi WNW 16.1 mph 25.3 mph N/A   Scattered Clouds
12:55 PM 64.0 °F 46.4 °F 53% 29.86 in 10.0 mi West 16.1 mph 20.7 mph N/A   Scattered Clouds
1:15 PM 62.6 °F 46.6 °F 56% 29.86 in 10.0 mi West 18.4 mph 24.2 mph N/A   Overcast
1:35 PM 59.5 °F 49.6 °F 70% 29.86 in 10.0 mi WNW 16.1 mph 20.7 mph N/A Rain Rain
1:55 PM 58.5 °F 50.9 °F 76% 29.86 in 7.0 mi West 9.2 mph 20.7 mph N/A   Overcast
2:15 PM 59.7 °F 49.6 °F 69% 29.85 in 10.0 mi West 12.7 mph 17.3 mph N/A   Overcast
2:35 PM 60.3 °F 48.6 °F 65% 29.85 in 10.0 mi West 15.0 mph - N/A   Mostly Cloudy
2:55 PM 60.4 °F 48.4 °F 64% 29.85 in 10.0 mi West 13.8 mph 23.0 mph N/A   Mostly Cloudy
3:15 PM 60.8 °F 48.2 °F 63% 29.84 in 10.0 mi WNW 15.0 mph 20.7 mph N/A   Scattered Clouds
3:35 PM 61.0 °F 48.2 °F 63% 29.83 in 10.0 mi West 18.4 mph 24.2 mph N/A   Mostly Cloudy
3:55 PM 60.3 °F 48.2 °F 64% 29.82 in 10.0 mi West 12.7 mph 18.4 mph N/A   Overcast
4:15 PM 59.4 °F 48.7 °F 68% 29.82 in 10.0 mi West 5.8 mph - N/A   Overcast
4:35 PM 59.0 °F 48.9 °F 69% 29.82 in 10.0 mi West 9.2 mph 19.6 mph N/A   Overcast
4:55 PM 59.0 °F 49.1 °F 70% 29.82 in 10.0 mi West 8.1 mph - N/A   Overcast
5:15 PM 59.0 °F 49.1 °F 70% 29.82 in 10.0 mi West 10.4 mph - N/A   Overcast
5:35 PM 59.7 °F 48.9 °F 67% 29.81 in 10.0 mi West 5.8 mph - N/A   Overcast
5:55 PM 60.8 °F 48.6 °F 64% 29.80 in 10.0 mi WNW 8.1 mph - N/A   Overcast
6:15 PM 60.8 °F 48.2 °F 63% 29.80 in 10.0 mi West 10.4 mph 19.6 mph N/A   Overcast
6:35 PM 60.4 °F 47.8 °F 63% 29.79 in 10.0 mi West 8.1 mph - N/A   Overcast
6:55 PM 60.3 °F 47.7 °F 63% 29.78 in 10.0 mi West 13.8 mph 20.7 mph N/A   Mostly Cloudy
7:15 PM 60.4 °F 47.5 °F 62% 29.79 in 10.0 mi West 11.5 mph 23.0 mph N/A   Clear
7:35 PM 60.3 °F 47.5 °F 63% 29.78 in 10.0 mi West 15.0 mph 18.4 mph N/A   Scattered Clouds
7:55 PM 59.9 °F 47.5 °F 64% 29.78 in 10.0 mi West 12.7 mph 19.6 mph N/A   Clear
8:15 PM 59.0 °F 47.8 °F 66% 29.79 in 10.0 mi WNW 11.5 mph 25.3 mph N/A   Scattered Clouds
8:35 PM 58.5 °F 47.8 °F 68% 29.79 in 10.0 mi WNW 16.1 mph 23.0 mph N/A   Scattered Clouds
8:55 PM 57.9 °F 48.2 °F 70% 29.79 in 10.0 mi West 12.7 mph 20.7 mph N/A   Scattered Clouds
9:15 PM 58.1 °F 48.4 °F 70% 29.80 in 10.0 mi WNW 15.0 mph 28.8 mph N/A   Scattered Clouds
9:35 PM 58.1 °F 48.4 °F 70% 29.81 in 10.0 mi WNW 12.7 mph 27.6 mph N/A   Scattered Clouds
9:55 PM 58.1 °F 48.0 °F 69% 29.81 in 10.0 mi NW 11.5 mph 28.8 mph N/A   Mostly Cloudy
10:15 PM 58.8 °F 46.4 °F 63% 29.82 in 10.0 mi WNW 12.7 mph 24.2 mph N/A   Clear
10:35 PM 58.3 °F 46.9 °F 66% 29.82 in 10.0 mi WNW 10.4 mph 23.0 mph N/A   Scattered Clouds
10:55 PM 58.1 °F 46.8 °F 66% 29.82 in 10.0 mi West 11.5 mph 20.7 mph N/A   Mostly Cloudy
11:15 PM 58.1 °F 46.4 °F 65% 29.82 in 10.0 mi WNW 18.4 mph 24.2 mph N/A   Scattered Clouds
11:35 PM 58.1 °F 45.0 °F 62% 29.82 in 10.0 mi NW 13.8 mph 25.3 mph N/A   Scattered Clouds
11:55 PM 58.1 °F 43.9 °F 59% 29.82 in 10.0 mi WNW 18.4 mph 27.6 mph N/A   Scattered Clouds